Location: Newark
(39.9500°N, 8.6833°E)
Time: 06:12:48
(UTC+00:00)

NO-84 - Pass Details

Date: 28 February 2020
Orbit: 328 x 491 km, 55.0° (Epoch: 01 April)

Event Time Altitude Azimuth Distance (km) Brightness Sun altitude
Exits shadow 03:25:04 20° 72° (ENE) 1,163 ? -30.5°
Drops below altitude 10° 03:26:37 10° 92° (E) 1,622 ? -30.2°
Sets 03:28:56 0° 105° (ESE) 2,468 ? -29.8°
